Home > Weather > Burlington > Past weeks

Flag for Canada Weather for the Past 2 Weeks in Burlington, Ontario, Canada

Now
17 °F

Cold.


Feels Like: 5 °F
Forecast: 13 / 25 °F
Wind: 10 mph from Southwest

Location: Burlington Piers

Current Time: Feb 12, 2016 at 8:16:43 AM

Latest Report: Feb 12, 2016 at 7:00 AM


Visibility: N/A

Pressure: 30.09 "Hg

Humidity: 71%

Dew point: 9 °F

Location of BurlingtonLocation

Historic Weather in Burlington — Graph

°F

Burlington Temperature Yesterday

Maximum temperature yesterday: 17 °F (at 11:00 PM)
Minimum temperature yesterday: 8 °F (at 7:00 AM)
Average temperature yesterday: 13 °F

High & Low Weather Summary for the Past Weeks

 TemperatureHumidityPressure
High58 °F (Feb 3, 2:00 PM)97% (Feb 9, 7:00 AM)30.35 "Hg (Feb 9, 7:00 AM)
Low8 °F (Feb 11, 7:00 AM)42% (Feb 11, 12:00 PM)29.46 "Hg (Jan 31, 10:00 PM)
Average34 °F72%29.87 "Hg
* Reported Jan 28 7:00 AM — Feb 12 7:00 AM, Burlington, Weather by CustomWeather, © 2016

Note: Actual official high and low records may vary slightly from our data, if they occured in-between our weather recording intervals... More about our weather records

Advertising

Burlington Weather History for the Previous 24 Hours

 ConditionsComfort  
Time TempWeatherWind HumidityBarometerVisibility
7:00 AM
Fri, Feb 12
17 °FCold.10 mph71%30.09 "HgN/A
6:00 AM17 °FCold.10 mph70%30.10 "HgN/A
5:00 AM17 °FCold.10 mph64%30.11 "HgN/A
4:00 AM17 °FCold.7 mph67%30.13 "HgN/A
3:00 AM16 °FCold.6 mph68%30.15 "HgN/A
2:00 AM16 °FCold.7 mph67%30.18 "HgN/A
1:00 AM15 °FCold.8 mph64%30.20 "HgN/A
12:00 AM15 °FCold.10 mph69%30.22 "HgN/A
11:00 PM
Thu, Feb 11
17 °FCold.7 mph69%30.23 "HgN/A
10:00 PM15 °FCold.8 mph74%30.24 "HgN/A
9:00 PM14 °FCold.7 mph68%30.25 "HgN/A
8:00 PM14 °FCold.6 mph64%30.25 "HgN/A
7:00 PM14 °FCold.6 mph57%30.24 "HgN/A
6:00 PM14 °FCold.12 mph55%30.22 "HgN/A
4:00 PM15 °FCold.15 mph53%30.17 "HgN/A
3:00 PM15 °FCold.17 mph51%30.15 "HgN/A
2:00 PM15 °FCold.15 mph50%30.13 "HgN/A
1:00 PM15 °FCold.15 mph46%30.12 "HgN/A
12:00 PM15 °FCold.20 mph42%30.11 "HgN/A
11:00 AM13 °FCold.17 mph46%30.10 "HgN/A
10:00 AM11 °FCold.18 mph45%30.08 "HgN/A
9:00 AM10 °FCold.18 mph51%30.06 "HgN/A
8:00 AM9 °FFrigid.15 mph57%30.05 "HgN/A
Weather by CustomWeather, © 2016

See weather overviewHow to use our weather pages